Theta_e
314 314 311 309 310 309 308 307 304 300 301 307 308 315 314 313 314 313 313 314 314 314 310 309 309 311 311 311 312 313 315 315 317 318 317 316 315 315
310 312 312 310 310 309 308 309 307 305 300 305 306 311 312 310 310 313 312 313 313 314 311 309 309 309 309 310 311 312 313 313 314 316 314 312 312 312
311 310 310 312 308 308 308 307 306 306 302 304 308 310 313 310 310 311 310 312 311 314 309 309 309 309 309 308 310 310 312 312 313 313 312 312 312 312
309 309 308 308 312 310 306 310 308 308 304 304 307 307 310 312 311 311 310 309 309 311 311 311 310 309 310 309 310 310 311 311 311 311 311 311 312 313
309 309 310 308 309 306 307 306 305 305 305 303 303 306 307 306 307 308 310 311 308 308 309 309 309 310 310 310 309 309 308 306 305 306 306 307 308 310
311 311 310 308 306 305 303 306 305 304 305 303 303 303 304 308 307 305 303 305 304 306 307 309 309 309 309 309 308 307 306 305 305 305 306 306 307 308
310 307 309 307 306 304 301 303 305 302 301 301 301 300 301 302 305 304 303 302 304 305 304 304 304 304 306 309 308 307 302 302 303 305 305 305 305 306
307 307 306 307 305 303 303 303 304 305 303 303 302 301 303 305 304 304 302 299 297 305 303 301 304 303 307 311 304 303 303 303 304 304 304 303 303 302
307 306 304 303 304 301 301 303 304 305 306 305 303 303 302 304 304 301 301 300 298 302 302 299 302 302 305 303 303 302 302 302 302 302 302 302 301 300
308 307 306 305 301 299 301 302 303 304 306 303 303 304 304 304 302 301 301 302 301 301 302 296 301 300 305 307 302 301 301 300 299 299 299 300 299 299
307 306 305 304 296 296 300 301 302 302 302 302 301 300 299 299 300 299 296 296 294 296 300 299 298 299 302 304 306 301 301 299 299 299 299 299 299 298
309 305 298 300 296 295 300 301 300 301 301 301 303 303 303 302 301 299 298 295 294 293 299 298 297 300 296 304 305 303 304 300 300 300 300 298 297 299
303 303 305 297 296 295 295 302 301 300 301 302 301 301 301 301 299 299 301 298 294 295 299 297 297 298 295 298 300 301 302 301 301 301 298 297 297 297
304 305 305 297 295 294 297 298 295 296 301 299 298 297 295 295 296 297 298 299 300 300 302 302 299 298 295 296 294 298 299 300 298 299 299 298 298 297
305 303 298 295 296 298 297 297 296 301 300 296 294 294 294 294 295 296 298 300 300 303 303 303 299 301 299 296 296 296 294 295 299 298 297 296 297 298
305 305 302 301 297 300 301 302 302 301 298 295 293 293 294 293 293 295 296 296 296 297 301 304 301 302 299 299 298 295 296 293 298 295 296 297 298 298
297 304 304 304 302 301 301 301 301 299 294 293 292 291 292 292 293 295 295 294 293 295 297 299 302 301 301 299 295 295 294 295 297 295 295 295 297 297
301 303 303 301 300 300 299 299 300 296 294 292 292 291 291 291 291 292 295 295 294 295 295 296 296 295 296 298 297 295 294 293 294 294 296 294 294 297
304 303 301 300 299 300 300 299 298 296 294 292 291 291 291 292 291 292 294 294 294 295 295 295 294 293 290 290 296 296 294 294 294 294 295 295 295 296
302 301 299 299 300 300 300 298 298 295 293 292 291 292 292 292 292 293 295 295 294 294 293 295 294 294 291 289 289 294 294 294 295 294 295 297 296 296
302 300 300 299 299 300 300 299 298 294 292 292 291 292 292 293 293 294 294 291 291 294 293 294 297 289 297 297 294 295 299 295 297 295 295 295 294 295
301 300 299 300 300 300 299 299 295 293 292 292 291 291 292 293 294 294 294 293 294 295 296 298 300 298 296 294 294 295 297 299 297 296 296 295 293 290
300 299 299 300 300 300 299 296 293 292 292 291 290 290 291 292 294 295 296 297 298 297 297 298 300 299 295 295 293 294 295 295 297 294 296 295 295 294
Wind_Speed
8 9 10 9 7 7 8 10 10 9 10 4 5 4 3 5 3 7 10 11 15 9 7 7 8 10 13 15 16 16 15 15 16 14 10 9 8 7
8 9 9 8 9 8 10 8 8 10 10 11 9 5 6 6 6 6 9 12 11 14 9 7 9 9 10 14 14 15 16 15 15 13 9 8 8 8
7 9 9 8 9 10 9 9 8 11 11 11 12 10 9 9 7 7 11 10 8 1 6 12 9 8 12 13 13 14 12 13 12 8 8 9 10 11
10 10 10 9 10 10 11 11 10 10 8 13 9 12 9 15 5 9 7 12 6 7 14 10 9 10 12 13 11 14 8 6 5 6 6 10 12 13
10 11 11 9 10 11 12 11 11 9 11 10 11 11 9 5 9 11 7 10 6 8 6 13 8 10 14 14 10 6 2 2 3 3 5 8 11 13
11 10 8 9 11 12 12 13 12 13 12 11 11 10 8 7 6 8 8 11 9 11 8 3 14 13 17 12 9 6 3 0 3 5 6 8 8 11
10 11 12 11 10 14 11 13 13 12 12 11 11 12 11 10 9 8 7 9 10 10 7 7 8 9 6 7 9 8 2 4 6 8 7 7 8 6
8 10 11 14 14 17 17 21 20 12 13 11 9 13 13 11 10 9 10 9 11 11 9 10 8 10 9 5 9 6 4 5 7 8 7 6 6 6
8 7 10 10 13 15 18 20 17 14 6 9 12 12 13 12 13 13 13 12 11 12 11 10 9 9 7 2 8 5 1 2 3 3 5 4 5 6
7 6 8 10 11 12 16 16 15 16 15 12 13 13 13 13 13 11 13 12 10 8 7 11 9 10 7 1 7 4 3 2 2 1 2 3 5 7
10 6 6 8 6 6 13 16 16 15 14 12 14 16 11 8 7 6 8 8 9 9 9 5 5 8 8 6 5 6 5 5 4 4 5 6 6 7
11 7 6 6 6 9 11 14 17 16 16 16 14 8 6 10 5 5 4 7 8 4 6 6 8 6 5 4 1 3 4 8 10 9 10 6 6 7
11 9 9 6 8 11 14 13 13 14 15 11 13 10 11 9 9 5 9 6 7 6 10 6 5 8 3 7 6 7 4 4 4 4 6 6 9 7
11 9 11 11 15 13 11 17 18 13 9 11 11 11 8 9 9 10 10 9 8 11 10 9 5 6 4 4 4 5 7 4 5 5 3 5 9 10
6 10 14 11 14 12 9 14 9 10 12 11 9 9 8 7 9 9 8 10 9 12 5 6 5 7 4 6 6 3 2 3 6 1 4 5 4 3
7 13 12 15 10 8 10 13 8 11 11 9 9 8 8 7 7 7 7 7 8 9 8 4 6 7 6 5 4 4 2 3 3 4 5 5 4 4
11 11 6 7 7 10 10 12 8 12 8 8 7 7 6 7 7 7 6 6 6 7 6 7 7 8 7 5 3 2 4 5 3 4 6 4 3 2
9 9 14 9 8 11 11 10 9 12 7 7 6 6 7 7 7 7 6 5 7 6 5 5 6 6 5 1 0 4 3 3 4 5 6 4 2 2
9 9 11 10 9 11 9 9 10 10 9 7 8 7 7 6 7 7 6 7 7 6 5 3 4 4 4 3 2 4 4 3 3 5 3 4 4 2
4 9 10 9 8 10 10 10 9 9 7 7 7 7 7 6 6 6 7 7 8 6 5 5 3 4 3 2 2 3 9 5 4 3 3 2 4 5
10 9 9 7 10 11 11 10 11 9 7 7 7 7 8 7 6 6 6 7 7 5 5 4 3 4 5 5 3 4 3 11 5 3 5 5 4 2
9 12 10 10 12 12 12 11 10 10 8 7 7 7 7 7 6 7 6 5 5 5 6 4 3 2 2 2 7 5 2 3 3 2 3 4 3 4
10 9 10 10 11 11 13 11 10 9 8 7 7 7 7 7 7 6 6 6 5 5 4 5 4 2 3 4 5 3 6 4 1 3 3 2 2 2
Wind_Direction
48 20 352 2 358 353 345 332 337 328 327 312 48 139 340 338 332 326 318 335 303 284 266 291 312 319 319 315 304 295 293 292 282 263 250 256 256 255
13 6 359 6 348 0 340 341 342 340 330 331 342 6 340 339 9 334 318 295 290 286 231 270 288 294 302 309 304 297 286 283 282 251 236 241 242 244
11 1 4 358 355 350 342 357 356 341 342 331 328 335 8 304 321 308 293 293 303 202 221 256 270 290 292 301 304 304 284 281 279 231 239 240 238 238
7 355 355 1 359 4 341 355 331 330 308 308 315 311 345 311 284 284 333 314 338 336 337 330 268 274 274 284 291 298 272 275 266 252 264 265 257 258
3 346 12 21 13 354 338 338 328 336 317 308 309 285 287 51 326 292 306 312 300 280 297 305 252 269 263 260 279 287 122 95 25 324 282 269 268 263
7 358 10 14 6 356 340 328 333 318 306 304 307 310 301 308 303 326 335 311 322 318 301 284 283 282 270 248 233 209 170 223 309 296 296 291 287 269
4 1 7 51 39 13 343 334 315 319 314 313 315 314 330 352 327 332 309 300 316 306 314 324 307 309 291 187 229 194 193 279 283 275 263 274 269 258
3 1 349 22 356 358 341 324 305 302 315 315 315 321 324 323 329 317 306 312 310 299 339 312 318 308 331 314 148 160 277 295 289 272 253 252 249 251
5 354 353 4 14 352 339 318 328 315 293 306 302 322 321 328 328 319 316 318 321 320 325 298 301 295 326 141 157 164 150 324 305 339 316 269 260 262
336 351 356 356 21 349 333 336 331 341 336 337 329 313 307 326 321 315 311 302 304 313 330 308 310 313 297 121 167 192 197 180 97 35 309 279 271 275
341 350 7 15 353 325 325 335 332 340 333 318 294 282 281 298 301 311 307 316 314 316 306 308 303 295 297 297 154 208 196 196 222 254 272 272 277 284
324 98 128 27 341 302 312 319 319 337 333 322 317 313 312 357 268 257 287 316 318 291 324 314 309 340 308 40 192 197 221 219 242 246 245 244 276 287
319 322 350 16 312 305 309 306 302 314 317 321 337 340 340 333 333 343 330 316 302 285 281 280 308 304 310 303 326 332 25 326 247 289 205 247 275 258
309 320 341 333 309 290 296 293 299 296 353 341 339 338 338 329 323 317 309 295 274 281 292 288 276 264 260 295 290 312 324 301 323 280 315 281 257 244
307 302 287 287 282 292 296 310 287 4 355 345 338 333 331 319 308 299 298 293 298 285 299 327 280 291 263 252 275 290 311 283 282 319 307 275 274 284
306 324 339 321 301 330 2 333 358 22 356 348 332 325 321 315 308 302 310 326 313 308 355 2 287 288 307 298 299 296 273 288 330 315 285 270 256 231
323 305 315 312 334 356 335 338 10 18 359 334 320 317 313 316 316 325 313 315 295 303 324 333 331 321 305 302 304 290 291 300 318 298 295 301 293 264
306 339 317 2 358 354 330 333 23 18 343 326 318 315 319 320 317 313 301 298 311 313 322 326 340 331 336 348 335 325 321 316 297 293 293 284 273 266
287 334 352 3 350 328 334 342 26 5 332 325 321 317 319 307 317 319 324 331 326 336 340 342 319 326 324 329 20 227 306 296 297 310 279 276 292 3
332 0 1 353 337 336 330 6 20 346 332 321 316 319 314 307 308 321 325 336 336 338 317 322 334 336 320 294 297 270 221 273 292 314 323 280 277 279
16 10 359 345 335 332 353 12 17 332 318 318 316 315 318 318 318 317 310 325 322 321 326 338 330 246 277 265 260 269 293 204 261 337 326 319 333 330
351 3 343 351 334 354 3 10 353 331 328 324 320 319 317 313 309 323 329 320 313 313 307 300 315 333 311 298 313 349 291 149 137 172 66 33 353 343
6 334 4 350 342 7 1 6 332 326 326 324 322 317 313 310 305 306 306 302 306 312 313 302 296 252 239 275 306 317 355 3 266 215 159 65 72 52